Location: Albany
(35.0170°S, 117.8920°E)
Time: 01:32:06
(UTC+08:00)

Explorer 7 - Pass Details

Date: 23 January 2021
Orbit: 484 x 677 km, 50.3° (Epoch: 01 March)

Event Time Altitude Azimuth Distance (km) Brightness Sun altitude
Rises 00:43:23 0° 241° (WSW) 2,771 - -35.2°
Reaches altitude 10° 00:45:59 10° 254° (WSW) 1,831 - -35.1°
Maximum altitude 00:49:25 25° 310° (NW) 1,086 - -35.0°
Drops below altitude 10° 00:52:41 10° 6° (N) 1,729 - -34.9°
Sets 00:55:04 0° 20° (NNE) 2,582 - -34.8°
